Location: Belfast
(54.5830°N, 5.9330°W)
Time: 14:06:15
(UTC+01:00)

ISS - Pass Details

Date: 23 May 2017
Orbit: 402 x 408 km, 51.6° (Epoch: 26 May)

Event Time Altitude Azimuth Distance (km) Brightness Sun altitude
Rises 23:18:01 0° 216° (SW) 2,326 -0.2 -10.2°
Reaches altitude 10° 23:20:28 10° 198° (SSW) 1,467 -1.4 -10.4°
Maximum altitude 23:22:54 19° 150° (SSE) 1,035 -2.4 -10.6°
Drops below altitude 10° 23:25:20 10° 102° (ESE) 1,470 -1.4 -10.7°
Sets 23:27:47 0° 84° (E) 2,332 -0.2 -10.9°
